Weather History for Pueblo, CO

Change the Weather History Date:

Thursday, June 26, 2014

  Actual Average Record
Temperature  
Mean Temperature 78 °F 73 °F  
Max Temperature 97 °F 91 °F 106 °F (1980)
Min Temperature 58 °F 56 °F 45 °F (1968)
Degree Days  
Heating Degree Days 0 0  
Month to date heating degree days 3 22  
Since 1 June heating degree days 3 22  
Since 1 July heating degree days 5416 5635  
Cooling Degree Days 13 9  
Month to date cooling degree days 189 139  
Year to date cooling degree days 241 173  
Since 1 June cooling degree days 189 139  
Growing Degree Days 28 (Base 50)    
Moisture  
Dew Point 43 °F    
Average Humidity 41    
Maximum Humidity 73    
Minimum Humidity 9    
Precipitation  
Precipitation 0.00 in 0.04 in 0.47 in (1988)
Month to date precipitation 0.86 1.16  
Year to date precipitation 5.06 5.65  
Snow  
Snow 0.00 in 0.00 in 0.00 in (2002)
Month to date snowfall T 0.0  
Since 1 June snowfall T 0.0  
Since 1 July snowfall 29.3 31.8  
Snow Depth 0.00 in    
Sea Level Pressure  
Sea Level Pressure 29.60 in    
Wind  
Wind Speed 7 mph (North)    
Max Wind Speed 26 mph    
Max Gust Speed 32 mph    
Visibility 10 miles    
Events      
T = Trace of Precipitation, MM = Missing Value Source: NWS Daily Summary

Daily Weather History Graph

Daily Weather History Graph

Search for Another Location

Airport:

Trip Planner

Search our weather history database for the weather conditions in past years. The results will help you decide how hot, cold, wet, or windy it might be!

Date:

Astronomy

Jun. 26, 2014 Rise Set
Actual Time 5:36 AM MDT 8:25 PM MDT
Civil Twilight 5:04 AM MDT 8:57 PM MDT
Nautical Twilight 4:24 AM MDT 9:36 PM MDT
Astronomical Twilight 3:39 AM MDT 10:22 PM MDT
Moon 5:16 AM MDT (6/26) 7:49 PM MDT (6/26)
Length of Visible Light 15h 52m
Length of Day
14h 49m
Waning Crescent, 0% of the Moon is Illuminated
Jun 26
Waning Crescent
Jun 27
New
Jul 5
First Quarter
Jul 12
Full
Jul 18
Last Quarter

Hourly Weather History & Observations

Time (MDT) Temp. Dew Point Humidity Pressure Visibility Wind Dir Wind Speed Gust Speed Precip Events Conditions
12:53 AM 68.0 °F 50.0 °F 52% 29.72 in 10.0 mi ESE 11.5 mph - N/A   Clear
1:53 AM 64.9 °F 51.1 °F 61% 29.73 in 10.0 mi Calm Calm - N/A   Clear
2:53 AM 62.1 °F 52.0 °F 70% 29.71 in 10.0 mi North 6.9 mph - N/A   Clear
3:53 AM 62.1 °F 51.1 °F 67% 29.72 in 10.0 mi WNW 5.8 mph - N/A   Clear
4:53 AM 61.0 °F 51.1 °F 70% 29.72 in 10.0 mi NW 5.8 mph - N/A   Clear
5:53 AM 60.1 °F 51.1 °F 72% 29.74 in 10.0 mi NW 12.7 mph - N/A   Clear
6:53 AM 64.9 °F 55.9 °F 73% 29.74 in 10.0 mi North 8.1 mph - N/A   Clear
7:53 AM 69.1 °F 57.9 °F 68% 29.74 in 10.0 mi ENE 3.5 mph - N/A   Clear
8:53 AM 72.0 °F 57.0 °F 59% 29.74 in 10.0 mi Calm Calm - N/A   Clear
9:53 AM 75.0 °F 55.9 °F 51% 29.72 in 10.0 mi Calm Calm - N/A   Clear
10:53 AM 79.0 °F 55.0 °F 44% 29.68 in 10.0 mi Calm Calm - N/A   Clear
11:53 AM 82.9 °F 52.0 °F 34% 29.64 in 10.0 mi Calm Calm - N/A   Clear
12:53 PM 86.0 °F 48.9 °F 28% 29.62 in 10.0 mi Variable 3.5 mph - N/A   Clear
1:53 PM 93.0 °F 27.0 °F 9% 29.56 in 10.0 mi Variable 3.5 mph - N/A   Clear
2:53 PM 93.9 °F 28.0 °F 10% 29.52 in 10.0 mi SE 6.9 mph - N/A   Clear
3:53 PM 96.1 °F 33.1 °F 11% 29.48 in 10.0 mi ESE 12.7 mph - N/A   Clear
4:53 PM 93.9 °F 37.0 °F 14% 29.46 in 10.0 mi ESE 17.3 mph 25.3 mph N/A   Clear
5:53 PM 95.0 °F 34.0 °F 12% 29.44 in 10.0 mi SE 17.3 mph 32.2 mph N/A   Clear
6:53 PM 91.9 °F 37.0 °F 15% 29.43 in 10.0 mi WNW 10.4 mph - N/A   Clear
7:14 PM 93.0 °F 25.0 °F 9% 29.66 in 10.0 mi NW 18.4 mph - N/A   Clear
7:53 PM 89.1 °F 27.0 °F 11% 29.44 in 10.0 mi NW 8.1 mph - N/A   Clear
8:53 PM 84.0 °F 28.0 °F 13% 29.44 in 10.0 mi WNW 11.5 mph - N/A   Clear
9:53 PM 80.1 °F 30.9 °F 17% 29.46 in 10.0 mi WNW 9.2 mph - N/A   Clear
10:53 PM 73.0 °F 34.0 °F 24% 29.47 in 10.0 mi NNW 8.1 mph - N/A   Clear
11:53 PM 69.1 °F 41.0 °F 36% 29.49 in 10.0 mi ENE 5.8 mph - N/A   Clear